Weather History for Buffalo, WY

Change the Weather History Date:

Friday, August 30, 2013

  Actual Average Record
Temperature  
Mean Temperature 80 °F 66 °F  
Max Temperature 95 °F 80 °F 96 °F (2008)
Min Temperature 65 °F 52 °F 45 °F (2005)
Degree Days  
Heating Degree Days 0 3  
Month to date heating degree days 0 39  
Since 1 June heating degree days 101 227  
Since 1 July heating degree days 1 64  
Cooling Degree Days 15 4  
Month to date cooling degree days 264 180  
Year to date cooling degree days 609 441  
Since 1 June cooling degree days 599 434  
Growing Degree Days 30 (Base 50)    
Moisture  
Dew Point 42 °F    
Average Humidity 31    
Maximum Humidity 48    
Minimum Humidity 14    
Precipitation  
Precipitation 0.00 in 0.01 in 0.15 in (2003)
Month to date precipitation 0.23 0.79  
Year to date precipitation 4.42 10.25  
Sea Level Pressure  
Sea Level Pressure 29.94 in    
Wind  
Wind Speed 6 mph (West)    
Max Wind Speed 28 mph    
Max Gust Speed 36 mph    
Visibility 10 miles    
Events      
T = Trace of Precipitation, MM = Missing Value Source: NWS Daily Summary

Daily Weather History Graph

Daily Weather History Graph

Search for Another Location

Airport:

Trip Planner

Search our weather history database for the weather conditions in past years. The results will help you decide how hot, cold, wet, or windy it might be!

Date:

Astronomy

Aug. 30, 2013 Rise Set
Actual Time 6:27 AM MDT 7:46 PM MDT
Civil Twilight 5:57 AM MDT 8:16 PM MDT
Nautical Twilight 5:21 AM MDT 8:52 PM MDT
Astronomical Twilight 4:42 AM MDT 9:30 PM MDT
Moon 1:01 AM MDT 4:10 PM MDT
Length of Visible Light 14h 18m
Length of Day
13h 18m
Waning Crescent, 28% of the Moon is Illuminated
Aug 30
Waning Crescent
Sep 5
New
Sep 12
First Quarter
Sep 19
Full
Sep 26
Last Quarter

Hourly Weather History & Observations

Time (MDT) Temp. Dew Point Humidity Pressure Visibility Wind Dir Wind Speed Gust Speed Precip Events Conditions
12:53 AM 70.0 °F 46.0 °F 42% 30.02 in 10.0 mi South 4.6 mph - N/A   Clear
1:53 AM 66.0 °F 45.0 °F 47% 30.00 in 10.0 mi SW 5.8 mph - N/A   Clear
2:53 AM 71.1 °F 44.1 °F 38% 29.97 in 10.0 mi WSW 4.6 mph - N/A   Clear
3:53 AM 75.0 °F 42.1 °F 31% 29.94 in 10.0 mi WSW 9.2 mph - N/A   Clear
4:53 AM 70.0 °F 42.1 °F 36% 29.95 in 10.0 mi Calm Calm - N/A   Clear
5:53 AM 68.0 °F 46.0 °F 45% 29.97 in 10.0 mi North 4.6 mph - N/A   Clear
6:53 AM 66.0 °F 46.9 °F 50% 29.99 in 10.0 mi West 6.9 mph - N/A   Clear
7:53 AM 71.1 °F 46.0 °F 41% 30.02 in 10.0 mi Calm Calm - N/A   Clear
8:53 AM 75.0 °F 48.0 °F 38% 30.01 in 10.0 mi NNW 5.8 mph - N/A   Clear
9:53 AM 81.0 °F 46.0 °F 29% 30.01 in 10.0 mi Calm Calm - N/A   Clear
10:53 AM 84.0 °F 45.0 °F 25% 29.99 in 10.0 mi Variable 4.6 mph - N/A   Clear
11:53 AM 88.0 °F 42.1 °F 20% 29.97 in 10.0 mi South 4.6 mph - N/A   Clear
12:53 PM 91.0 °F 39.9 °F 17% 29.94 in 10.0 mi ENE 5.8 mph - N/A   Clear
1:53 PM 91.0 °F 37.9 °F 15% 29.93 in 10.0 mi Calm Calm - N/A   Clear
2:53 PM 93.0 °F 39.0 °F 15% 29.89 in 10.0 mi ENE 8.1 mph - N/A   Clear
3:53 PM 91.9 °F 36.0 °F 14% 29.86 in 10.0 mi Variable 3.5 mph - N/A   Clear
4:53 PM 91.9 °F 35.1 °F 13% 29.86 in 10.0 mi East 6.9 mph - N/A   Clear
5:53 PM 82.9 °F 41.0 °F 23% 29.88 in 10.0 mi NNW 25.3 mph 35.7 mph N/A   Clear
6:53 PM 80.1 °F 41.0 °F 25% 29.90 in 10.0 mi North 11.5 mph - N/A   Clear
7:53 PM 73.9 °F 45.0 °F 35% 29.91 in 10.0 mi WNW 5.8 mph - N/A   Clear
8:53 PM 70.0 °F 42.1 °F 36% 29.92 in 10.0 mi West 6.9 mph - N/A   Clear
9:53 PM 71.1 °F 39.9 °F 32% 29.90 in 10.0 mi West 6.9 mph - N/A   Clear
10:53 PM 69.1 °F 37.9 °F 32% 29.89 in 10.0 mi WSW 9.2 mph - N/A   Clear
11:53 PM 70.0 °F 37.0 °F 30% 29.88 in 10.0 mi West 9.2 mph - N/A   Clear